Flag for Norway

Past Weather in Råholt, Norway — Yesterday and Last 2 Weeks

Now
54 °F

Light rain. Fog.


Feels Like: 50 °F
Forecast: 58 / 47 °F
Wind: 12 mph from East

Location: Oslo Gardermoen Airport

Current Time: Jul 5, 2020 at 12:57:06 pm

Latest Report: Jul 5, 2020 at 12:20 pm


Visibility: 3 mi

Pressure: 29.21 "Hg

Humidity: 94%

Dew Point: 52 °F

Location of RåholtLocation

Past Weather in Råholt — Graph

°F

Råholt Temperature Yesterday

Maximum temperature yesterday: 64 °F (at 4:50 pm)
Minimum temperature yesterday: 48 °F (at 12:20 am)
Average temperature yesterday: 55 °F

High & Low Weather Summary for the Past Weeks

 TemperatureHumidityPressure
High84 °F (Jun 27, 4:20 pm)100% (Jun 22, 4:20 am)30.30 "Hg (Jun 22, 4:20 am)
Low45 °F (Jul 3, 3:20 am)27% (Jun 27, 6:20 pm)29.18 "Hg (Jun 30, 8:50 pm)
Average62 °F71%29.83 "Hg
* Reported Jun 20 11:20 am — Jul 5 11:50 am, Råholt. Weather by CustomWeather, © 2020

Note: Actual official high and low records may vary slightly from our data, if they occured in-between our weather recording intervals... More about our weather records

Råholt Weather History for the Previous 24 Hours

Scroll right to see more
 ConditionsComfort  
Time TempWeatherWind HumidityBarometerVisibility
11:50 am
Sun, Jul 5
54 °FLight rain. Broken clouds.10 mph94%29.24 "Hg4 mi
11:20 am54 °FLight rain. Broken clouds.7 mph94%29.30 "HgN/A
10:50 am55 °FLight rain. Broken clouds.10 mph88%29.30 "Hg5 mi
10:20 am55 °FLight rain. Partly sunny.8 mph88%29.33 "HgN/A
9:50 am55 °FLight rain. Partly sunny.8 mph88%29.36 "HgN/A
9:20 am54 °FScattered showers. Partly sunny.7 mph94%29.39 "HgN/A
8:50 am54 °FScattered showers. Broken clouds.3 mph88%29.39 "HgN/A
8:20 am54 °FLight rain. Broken clouds.5 mph88%29.42 "HgN/A
7:50 am52 °FBroken clouds.5 mph88%29.42 "HgN/A
7:20 am52 °FBroken clouds.5 mph88%29.45 "HgN/A
6:50 am52 °FBroken clouds.2 mph88%29.47 "HgN/A
5:50 am48 °FPartly sunny.3 mph87%29.47 "HgN/A
5:20 am48 °FBroken clouds.3 mph87%29.50 "HgN/A
4:50 am48 °FBroken clouds.3 mph87%29.50 "HgN/A
4:20 am50 °FBroken clouds.2 mph82%29.50 "HgN/A
3:50 am50 °FPartly cloudy.2 mph82%29.53 "HgN/A
3:20 am50 °FPartly cloudy.3 mph82%29.53 "HgN/A
2:50 am50 °FClear.2 mph82%29.53 "Hg10 mi
2:20 am52 °FPassing clouds.1 mph82%29.53 "HgN/A
1:50 am52 °FClear.3 mph82%29.53 "Hg10 mi
1:20 am54 °FClear.3 mph82%29.56 "Hg10 mi
12:50 am55 °FClear.No wind72%29.56 "Hg10 mi
12:20 am55 °FClear.2 mph72%29.56 "Hg10 mi
11:50 pm
Sat, Jul 4
57 °FClear.2 mph59%29.56 "Hg10 mi
11:20 pm57 °FClear.2 mph59%29.56 "Hg10 mi
10:50 pm57 °FRefreshingly cool.No wind59%29.56 "HgN/A
10:20 pm57 °FSunny.2 mph63%29.56 "Hg10 mi
9:50 pm59 °FSunny.1 mph55%29.56 "Hg10 mi
9:20 pm59 °FSunny.7 mph51%29.56 "Hg10 mi
8:50 pm61 °FSunny.8 mph45%29.56 "Hg10 mi
8:20 pm61 °FSunny.9 mph48%29.56 "Hg10 mi
7:50 pm61 °FSunny.8 mph45%29.56 "Hg10 mi
7:20 pm63 °FSunny.7 mph45%29.56 "Hg10 mi
6:50 pm63 °FPassing clouds.6 mph39%29.56 "HgN/A
6:20 pm64 °FPassing clouds.7 mph37%29.56 "HgN/A
5:50 pm63 °FSunny.5 mph37%29.59 "Hg10 mi
5:20 pm64 °FSunny.5 mph34%29.59 "Hg10 mi
4:50 pm64 °FSunny.2 mph40%29.59 "Hg10 mi
4:20 pm63 °FPassing clouds.6 mph34%29.59 "HgN/A
3:50 pm63 °FSunny.5 mph39%29.59 "Hg10 mi
3:20 pm61 °FSunny.6 mph36%29.59 "Hg10 mi
2:50 pm61 °FSunny.7 mph36%29.59 "Hg10 mi
2:20 pm61 °FPassing clouds.6 mph36%29.59 "HgN/A
1:50 pm59 °FPassing clouds.5 mph36%29.59 "HgN/A
1:20 pm59 °FPassing clouds.3 mph42%29.59 "HgN/A
12:50 pm57 °FPassing clouds.9 mph44%29.59 "HgN/A
12:20 pm57 °FPassing clouds.8 mph44%29.59 "HgN/A
Weather by CustomWeather, © 2020

See weather overview